TimeCST,TemperatureF,Dew PointF,Humidity,Sea Level PressureIn,VisibilityMPH,Wind Direction,Wind SpeedMPH,Gust SpeedMPH,PrecipitationIn,Events,Conditions,WindDirDegrees,DateUTC
12:55 AM,31.8,17.2,55,30.32,10.0,North,19.6,-,N/A,,Clear,360,2013-02-15 06:55:00
1:55 AM,28.9,18.0,64,30.35,10.0,North,17.3,23.0,N/A,,Clear,350,2013-02-15 07:55:00
2:55 AM,27.1,18.9,71,30.37,10.0,North,16.1,20.7,N/A,,Clear,360,2013-02-15 08:55:00
3:55 AM,25.3,19.6,79,30.37,10.0,North,13.8,-,N/A,,Clear,360,2013-02-15 09:55:00
4:55 AM,23.9,19.9,85,30.38,10.0,North,13.8,-,N/A,,Clear,360,2013-02-15 10:55:00
5:55 AM,23.2,19.8,87,30.41,10.0,North,13.8,-,N/A,,Clear,360,2013-02-15 11:55:00
6:55 AM,21.9,18.1,85,30.43,10.0,North,15.0,20.7,N/A,,Clear,360,2013-02-15 12:55:00
7:55 AM,21.2,16.9,83,30.45,10.0,North,13.8,-,N/A,,Clear,350,2013-02-15 13:55:00
8:55 AM,24.1,16.0,71,30.46,10.0,North,13.8,-,N/A,,Clear,360,2013-02-15 14:55:00
9:55 AM,28.8,11.7,49,30.45,10.0,North,9.2,-,N/A,,Clear,10,2013-02-15 15:55:00
10:55 AM,30.2,11.5,46,30.45,10.0,North,8.1,-,N/A,,Clear,360,2013-02-15 16:55:00
11:55 AM,32.5,13.3,45,30.45,10.0,Variable,4.6,-,N/A,,Clear,0,2013-02-15 17:55:00
12:55 PM,35.8,13.3,40,30.42,10.0,North,4.6,-,N/A,,Clear,10,2013-02-15 18:55:00
1:55 PM,39.7,10.0,30,30.38,10.0,NNW,8.1,-,N/A,,Clear,330,2013-02-15 19:55:00
2:55 PM,39.9,10.2,30,30.37,10.0,North,12.7,18.4,N/A,,Clear,350,2013-02-15 20:55:00
3:55 PM,40.1,10.2,29,30.37,10.0,NW,10.4,-,N/A,,Partly Cloudy,320,2013-02-15 21:55:00
4:55 PM,38.7,10.6,32,30.36,10.0,NNW,6.9,-,N/A,,Clear,340,2013-02-15 22:55:00
5:55 PM,37.6,10.9,33,30.35,10.0,WNW,6.9,-,N/A,,Clear,290,2013-02-15 23:55:00
6:55 PM,36.5,12.7,38,30.35,10.0,West,4.6,-,N/A,,Clear,280,2013-02-16 00:55:00
7:55 PM,34.5,13.6,42,30.35,10.0,West,4.6,-,N/A,,Clear,270,2013-02-16 01:55:00
8:55 PM,35.2,17.1,48,30.35,10.0,NNW,12.7,18.4,N/A,,Scattered Clouds,330,2013-02-16 02:55:00
9:55 PM,34.5,16.2,47,30.38,10.0,NNW,19.6,28.8,N/A,,Mostly Cloudy,340,2013-02-16 03:55:00
10:55 PM,33.4,11.3,40,30.39,10.0,North,12.7,-,N/A,,Overcast,350,2013-02-16 04:55:00
11:55 PM,29.3,10.9,46,30.40,10.0,NNE,17.3,21.9,N/A,,Clear,20,2013-02-16 05:55:00